{"data":{"norad_id":58495,"intl_designator":"2023-186Y","name":"STARLINK-31002","alt_names":[],"object_type":"PAYLOAD","status":"ACTIVE","operator":null,"country":"US","launch_date":"2023-12-03","launch_site_code":"AFETR","launch_vehicle":null,"mission":null,"orbit_class":"UNKNOWN","rcs_meters":null,"size_class":null,"mass_kg":null,"dimensions":null,"purposes":["comms"],"wikipedia_slug":null,"has_3d_model":false,"image_url":null,"decayed_at":null,"tle_current":{"epoch":"2026-05-24T20:48:04.013568Z","epoch_age_seconds":89696,"freshness":"FRESH","line1":"1 58495U 23186Y   26144.86671312 -.00000605  00000+0 -12441-4 0  9990","line2":"2 58495  43.0043 353.6787 0001505 268.1966  91.8713 15.27582796137704","mean_motion":15.27582796,"eccentricity":0.0001505,"inclination_deg":43.0043,"raan_deg":353.6787,"arg_perigee_deg":268.1966,"mean_anomaly_deg":91.8713,"bstar":-1.2441e-5,"rev_number":13770,"period_min":94.266576173197,"perigee_km":482.00811657513,"apogee_km":484.07333107,"semimajor_km":6861.1777238226,"source":"CELESTRAK","updated_at":"2026-05-25T13:38:18.654726Z"}}}